This demonstration page uses our WeatherBlox Daily Observations layout. Learn more.

38.89511, -77.03637

Hourly Observations for November 22, 2017

Temp ( °F °C ) Dew Point ( °F °C ) Humidity (%) Winds ( mph kmh ) Pressure ( in mb ) Visibility ( mi km ) Precip ( " mm )
12:52 am 00:52 Cloudy 52 11.1 46 7.8 80 80 SSW 8 13 29.97 1015 10 16.09344 0 0
1:52 am 01:52 Cloudy 53 11.7 46 7.8 77 77 SSW 8 13 29.94 1014 10 16.09344 0 0
2:52 am 02:52 Mostly Cloudy 53 11.7 46 7.8 77 77 S 8 13 29.91 1013 10 16.09344 0 0
3:52 am 03:52 Cloudy with Light Rain 53 11.7 48 8.9 83 83 S 10 17 29.91 1013 10 16.09344 0.001 0.001
4:52 am 04:52 Cloudy 51 10.6 49 9.4 92 92 S 5 7 29.91 1013 10 16.09344 0.01 0.254
5:21 am 05:21 Cloudy 53 11.7 50 10 89 89 SW 3 6 29.94 1014 10 16.09344 0 0
5:31 am 05:31 Cloudy 52 11.1 49 9.4 89 89 W 6 9 29.94 1014 10 16.09344 0 0
5:52 am 05:52 Mostly Cloudy 52 11.1 49 9.4 89 89 SSW 3 6 29.91 1013 10 16.09344 0 0
6:52 am 06:52 Cloudy 51 10.6 49 9.4 92 92 S 3 6 29.91 1013 10 16.09344 0 0
7:52 am 07:52 Cloudy 56 13.3 40 4.4 55 55 NW 9 15 29.94 1014 10 16.09344 0 0
8:52 am 08:52 Mostly Cloudy 57 13.9 38 3.3 49 49 NW 10 17 29.97 1015 10 16.09344 0 0
9:52 am 09:52 Mostly Sunny 58 14.4 36 2.2 44 44 NW 16 26 29.97 1015 10 16.09344 0 0
10:52 am 10:52 Partly Cloudy 58 14.4 36 2.2 44 44 NNW 24 39 29.97 1015 10 16.09344 0 0
11:52 am 11:52 Partly Cloudy 56 13.3 33 0.6 42 42 NW 24 39 30 1016 10 16.09344 0 0
12:52 pm 12:52 Partly Cloudy 55 12.8 33 0.6 44 44 NW 16 26 30 1016 10 16.09344 0 0
1:52 pm 13:52 Partly Cloudy 53 11.7 30 -1.1 41 41 NNW 25 41 30 1016 10 16.09344 0 0
2:52 pm 14:52 Mostly Sunny 52 11.1 30 -1.1 43 43 N 25 41 30.03 1017 10 16.09344 0 0
3:52 pm 15:52 Partly Cloudy 50 10 28 -2.2 43 43 NNW 17 28 30.06 1018 10 16.09344 0 0
4:52 pm 16:52 Partly Cloudy 48 8.9 28 -2.2 46 46 NNW 17 28 30.09 1019 10 16.09344 0 0
5:52 pm 17:52 Mostly Clear 45 7.2 26 -3.3 48 48 NW 12 19 30.12 1020 10 16.09344 0 0
6:52 pm 18:52 Mostly Clear 44 6.7 25 -3.9 47 47 NW 13 20 30.12 1020 10 16.09344 0 0
7:52 pm 19:52 Mostly Clear 42 5.6 25 -3.9 51 51 NW 9 15 30.15 1021 10 16.09344 0 0
8:52 pm 20:52 Clear 41 5 25 -3.9 53 53 NW 12 19 30.18 1022 10 16.09344 0 0
9:52 pm 21:52 Clear 40 4.4 25 -3.9 55 55 NW 9 15 30.18 1022 10 16.09344 0 0
10:52 pm 22:52 Partly Cloudy 39 3.9 24 -4.4 55 55 WNW 9 15 30.18 1022 10 16.09344 0 0
11:52 pm 23:52 Mostly Clear 38 3.3 24 -4.4 57 57 NNW 7 11 30.18 1022 10 16.09344 0 0

Powered by AerisWeather